Location: Blanot
(47.1713°N, 4.2340°E)
Time: 04:45:41
(UTC+00:00)

Cosmos 1674 Rocket - Pass Details

Date: 14 July 2020
Orbit: 602 x 631 km, 82.5° (Epoch: 06 August)

Event Time Altitude Azimuth Distance (km) Brightness Sun altitude
Rises 02:41:13 0° 346° (NNW) 2,887 7.5 -11.0°
Reaches altitude 10° 02:43:29 10° 342° (NNW) 1,973 6.6 -10.8°
Maximum altitude 02:47:44 54° 266° (W) 744 3.7 -10.3°
Drops below altitude 10° 02:51:55 10° 189° (S) 1,944 5.6 -9.8°
Enters shadow 02:52:18 - 188° (S) 2,098 5.8 -9.8°
